Flag for Australia Weather past 2 weeks in Adelaide, South Australia, Australia

Now
64 °F

Clear.


Feels Like: 64 °F
Forecast: 62 / 80 °F
Wind: 14 mph from Southeast

Location: Adelaide Airport

Current Time: Jan 30, 2015 at 5:33:15 AM

Latest Report: Jan 30, 2015 at 4:30 AM


Visibility: 10 mi

Pressure: 29.95 "Hg

Humidity: 43%

Dew point: 41 °F

Location of AdelaideLocation

Historic Weather in Adelaide — Graph

°F

Adelaide temperature yesterday

Maximum temperature yesterday: 86 °F (at 4:00 PM)
Minimum temperature yesterday: 63 °F (at 1:00 AM)
Average temperature yesterday: 72 °F

Past Weeks' High & Low Weather Summary

 TemperatureHumidityPressure
High90 °F (Jan 20, 1:00 PM)94% (Jan 21, 5:30 AM)30.09 "Hg (Jan 21, 5:30 AM)
Low55 °F (Jan 16, 4:30 AM)12% (Jan 29, 3:00 PM)29.47 "Hg (Jan 20, 1:00 PM)
Average68 °F56%29.89 "Hg
* Reported Jan 15 3:30 AM — Jan 30 4:00 AM, Adelaide, Weather by CustomWeather, © 2014

Note: Actual official high and low records may vary slightly from our data, if they occured in-between our weather recording intervals... More about our weather records

Advertising

Adelaide weather history for previous 24 hours

 ConditionsComfort  
Time TempWeatherWind HumidityBarometerVisibility
4:00 AM
Jan 30
66 °FClear.10 mph43%29.95 "Hg10 mi
3:30 AM66 °FClear.6 mph46%29.95 "Hg10 mi
3:00 AM66 °FClear.10 mph49%29.95 "Hg10 mi
2:30 AM66 °FClear.8 mph56%29.95 "Hg10 mi
2:00 AM66 °FClear.15 mph64%29.95 "Hg10 mi
1:30 AM66 °FClear.13 mph68%29.98 "Hg10 mi
1:00 AM64 °FClear.9 mph73%29.98 "Hg10 mi
12:30 AM64 °FClear.8 mph78%29.98 "Hg10 mi
12:00 AM64 °FClear.9 mph78%29.98 "Hg10 mi
11:30 PM
Jan 29
64 °FClear.9 mph73%29.98 "Hg10 mi
11:00 PM66 °FClear.13 mph68%29.98 "Hg10 mi
10:30 PM66 °FClear.17 mph68%29.98 "Hg10 mi
10:00 PM66 °FClear.18 mph68%29.98 "Hg10 mi
9:30 PM68 °FClear.18 mph60%29.98 "Hg10 mi
9:00 PM68 °FClear.18 mph60%29.98 "Hg10 mi
8:30 PM70 °FSunny.17 mph53%29.98 "Hg10 mi
8:00 PM73 °FSunny.17 mph41%29.98 "Hg10 mi
7:30 PM77 °FSunny.17 mph34%29.95 "Hg10 mi
7:00 PM79 °FSunny.17 mph32%29.95 "Hg10 mi
6:30 PM81 °FSunny.17 mph28%29.95 "Hg10 mi
6:00 PM82 °FSunny.18 mph23%29.95 "Hg10 mi
5:30 PM82 °FSunny.17 mph23%29.95 "Hg10 mi
5:00 PM84 °FSunny.12 mph15%29.95 "Hg10 mi
4:30 PM84 °FSunny.13 mph14%29.95 "Hg10 mi
4:00 PM86 °FSunny.17 mph12%29.95 "Hg10 mi
3:30 PM84 °FSunny.12 mph13%29.98 "Hg10 mi
3:00 PM84 °FSunny.15 mph12%29.98 "Hg10 mi
2:30 PM82 °FSunny.17 mph15%29.98 "Hg10 mi
1:30 PM81 °FSunny.14 mph20%30.01 "Hg10 mi
1:00 PM81 °FSunny.9 mph20%30.01 "Hg10 mi
12:30 PM81 °FSunny.9 mph21%30.04 "Hg10 mi
12:00 PM75 °FSunny.10 mph34%30.04 "Hg10 mi
11:30 AM73 °FSunny.10 mph38%30.04 "Hg10 mi
11:00 AM73 °FSunny.9 mph36%30.04 "Hg10 mi
10:30 AM70 °FSunny.9 mph40%30.04 "Hg10 mi
10:00 AM72 °FSunny.8 mph38%30.04 "Hg10 mi
9:30 AM70 °FSunny.6 mph38%30.04 "Hg10 mi
9:00 AM70 °FSunny.7 mph40%30.04 "Hg10 mi
8:30 AM68 °FSunny.14 mph40%30.04 "Hg10 mi
8:00 AM66 °FSunny.15 mph43%30.01 "Hg10 mi
7:30 AM64 °FSunny.21 mph46%30.01 "Hg10 mi
6:30 AM64 °FClear.15 mph49%29.98 "Hg10 mi
6:00 AM64 °FClear.15 mph49%29.98 "Hg10 mi
5:30 AM66 °FClear.17 mph43%29.98 "Hg10 mi
5:00 AM66 °FClear.18 mph43%29.98 "Hg10 mi
Weather by CustomWeather, © 2014

See weather overviewHow to use our weather pages